Time,TemperatureF,DewpointF,PressureIn,WindDirection,WindDirectionDegrees,WindSpeedMPH,WindSpeedGustMPH,Humidity,HourlyPrecipIn,Conditions,Clouds,dailyrainin,SoftwareType,DateUTC
2013-09-19 00:43:00,63.0,55.0,-100.00,SW,220,13.0,16.0,75,-99.99,,,-99.99,,2013-09-19 04:43:00,
2013-09-19 01:13:00,63.0,55.0,-100.00,SW,220,13.0,16.0,75,-99.99,,,-99.99,,2013-09-19 05:13:00,
2013-09-19 01:43:00,63.0,55.0,-100.00,SW,220,11.0,13.0,76,-99.99,,,-99.99,,2013-09-19 05:43:00,
2013-09-19 02:12:00,62.0,55.0,-100.00,SSW,200,11.0,13.0,77,-99.99,,,-99.99,,2013-09-19 06:12:00,
2013-09-19 02:42:00,62.0,55.0,-100.00,SW,220,11.0,13.0,77,-99.99,,,-99.99,,2013-09-19 06:42:00,
2013-09-19 03:11:00,62.0,55.0,-100.00,SW,230,11.0,13.0,77,-99.99,,,-99.99,,2013-09-19 07:11:00,
2013-09-19 04:11:00,62.0,54.0,-100.00,West,260,9.0,11.0,76,-99.99,,,-99.99,,2013-09-19 08:11:00,
2013-09-19 04:42:00,62.0,54.0,-100.00,West,260,11.0,13.0,73,-99.99,,,-99.99,,2013-09-19 08:42:00,
2013-09-19 05:11:00,61.0,53.0,-100.00,West,270,9.0,11.0,76,-99.99,,,-99.99,,2013-09-19 09:11:00,
2013-09-19 05:42:00,61.0,53.0,-100.00,West,270,11.0,13.0,75,-99.99,,,-99.99,,2013-09-19 09:42:00,
2013-09-19 06:12:00,61.0,52.0,-100.00,West,260,11.0,13.0,73,-99.99,,,-99.99,,2013-09-19 10:12:00,
2013-09-19 18:42:00,74.0,55.0,-100.00,SW,220,11.0,13.0,51,-99.99,,,-99.99,,2013-09-19 22:42:00,
2013-09-19 19:12:00,72.0,55.0,-100.00,SSW,210,11.0,13.0,53,-99.99,,,-99.99,,2013-09-19 23:12:00,
2013-09-19 19:42:00,71.0,55.0,-100.00,SSW,200,11.0,13.0,57,-99.99,,,-99.99,,2013-09-19 23:42:00,
2013-09-19 20:11:00,69.0,55.0,-100.00,SSW,200,11.0,13.0,60,-99.99,,,-99.99,,2013-09-20 00:11:00,
2013-09-19 20:42:00,68.0,56.0,-100.00,South,190,9.0,11.0,65,-99.99,,,-99.99,,2013-09-20 00:42:00,
2013-09-19 21:12:00,67.0,56.0,-100.00,SSW,210,11.0,13.0,67,-99.99,,,-99.99,,2013-09-20 01:12:00,
2013-09-19 22:11:00,66.0,57.0,-100.00,SSW,210,11.0,13.0,72,-99.99,,,-99.99,,2013-09-20 02:11:00,
2013-09-19 22:42:00,66.0,58.0,-100.00,SSW,210,11.0,13.0,74,-99.99,,,-99.99,,2013-09-20 02:42:00,
2013-09-19 22:45:00,66.0,58.0,-100.00,SSW,200,11.0,13.0,75,-99.99,,,-99.99,,2013-09-20 02:45:00,
2013-09-19 23:12:00,66.0,58.0,-100.00,SSW,210,11.0,13.0,75,-99.99,,,-99.99,,2013-09-20 03:12:00,